Theta_e
293 288 287 285 288 289 289 290 289 289 288 287 286 284 284 284 285 288 289 292 290 290 287 289 288 287 290 291 293 293 291 290 290 291 293 294 295 296 296 296 297 297 298 300 299 299 300 301 302 304 308 309 309 311 314 316 316 318 319 317 317 316 316 317 316 315 315 314 312 310 314 317 318 320 321 321 322 323 326 327 328 327 328 329 328 327
290 286 286 289 289 288 290 288 287 288 287 288 284 283 285 285 287 288 291 291 289 289 283 283 285 287 288 290 291 291 288 290 291 291 292 293 294 295 295 296 296 298 296 297 297 297 297 299 300 301 305 306 308 309 312 314 315 317 316 316 316 313 313 316 317 317 316 317 318 317 317 317 313 315 318 320 321 321 320 321 324 326 328 328 329 326
286 285 288 289 290 289 288 288 288 288 287 285 286 284 284 285 285 289 288 289 290 288 287 282 286 290 290 290 291 291 292 294 292 292 294 293 293 294 295 295 296 296 297 295 296 295 297 298 299 300 302 306 310 310 311 313 313 312 313 314 314 313 313 314 315 315 316 315 313 313 308 311 307 308 312 317 316 317 317 316 318 320 324 326 326 327
286 285 289 290 289 288 287 287 288 287 285 284 283 285 284 282 286 285 285 287 290 289 287 285 287 290 292 290 292 293 293 292 292 292 292 292 293 294 295 296 297 296 297 296 296 297 296 296 297 298 301 304 306 306 306 308 310 311 311 312 312 312 312 312 312 312 310 309 306 303 303 306 308 307 303 308 309 313 313 315 315 316 320 321 322 322
286 290 290 289 289 289 289 288 288 287 287 284 281 281 282 286 287 285 288 288 285 287 286 285 285 287 283 283 284 285 286 290 291 291 291 292 293 295 295 294 295 296 295 295 294 294 294 297 299 301 302 300 304 306 307 308 309 312 311 311 311 311 311 311 310 309 307 306 303 301 303 302 303 304 304 307 308 312 313 314 313 314 313 317 318 319
288 287 289 290 288 287 289 288 285 286 285 282 283 285 286 285 288 289 285 285 279 280 282 286 279 278 280 282 283 287 286 289 289 289 292 291 292 292 293 295 294 293 293 295 296 295 294 298 298 298 298 300 302 305 307 308 309 309 309 309 309 309 308 309 308 308 308 308 308 304 305 304 302 306 306 309 312 309 310 312 309 309 311 313 315 316
287 291 290 291 289 287 288 285 287 287 282 284 286 286 286 287 286 286 288 284 278 280 284 284 279 278 280 286 287 287 287 289 289 288 290 291 292 290 292 294 292 294 295 294 294 295 296 297 297 297 298 300 302 304 303 304 306 307 308 308 309 309 308 307 306 307 308 307 307 307 308 308 308 308 307 306 307 307 304 306 308 309 307 309 313 313
291 291 288 288 288 287 286 288 288 286 284 283 283 286 287 287 286 285 282 284 279 279 281 282 278 276 281 287 284 284 285 286 287 289 290 290 289 289 290 292 293 294 293 294 295 296 296 296 299 301 301 300 302 302 301 303 303 306 307 307 307 307 306 306 306 306 308 309 307 306 306 306 307 307 306 304 304 303 304 304 305 305 305 305 307 310
290 289 289 288 285 284 286 284 288 285 283 283 287 287 286 287 285 283 281 280 282 281 281 278 283 281 278 284 285 285 287 284 287 289 289 289 289 289 289 290 291 292 293 294 296 296 298 298 298 298 299 300 299 300 302 303 304 305 304 305 304 306 305 304 305 306 306 308 307 307 306 305 305 305 303 300 301 302 301 303 300 302 304 304 303 305
291 290 290 290 287 285 285 288 287 288 289 291 288 288 286 285 284 281 280 284 278 277 277 280 282 278 277 280 283 280 286 284 286 288 289 288 288 289 289 289 289 291 293 294 295 294 295 295 295 296 297 298 299 299 300 300 300 301 300 302 303 304 304 304 305 305 306 306 306 306 305 306 304 301 297 297 299 299 299 302 301 300 301 302 303 305
291 293 293 290 289 286 287 289 288 289 291 290 287 288 284 282 280 278 278 277 278 274 275 279 282 280 277 279 282 283 286 285 286 285 288 290 293 293 293 290 294 296 296 294 295 294 293 293 293 294 297 297 297 297 298 298 298 299 300 300 302 303 303 303 304 304 305 305 305 306 305 305 304 301 300 298 298 298 298 302 302 302 302 301 303 304
289 290 292 290 292 289 289 289 288 288 288 289 284 280 280 280 278 276 272 275 273 270 274 278 281 280 274 276 281 283 285 286 287 291 291 294 295 295 295 296 295 295 295 294 294 296 292 296 295 294 296 295 295 296 296 297 298 298 298 299 301 301 302 301 303 303 304 304 304 305 305 304 304 302 302 301 300 299 300 302 303 304 303 303 302 303
287 288 288 292 293 291 287 288 288 286 285 286 283 283 277 273 271 273 270 274 271 274 281 279 281 280 281 282 287 286 287 287 285 290 294 295 295 296 298 296 294 291 292 294 294 293 293 293 293 294 294 294 295 296 296 297 297 296 297 299 301 302 300 301 301 302 303 303 304 304 304 304 304 303 303 302 301 300 300 301 303 303 302 302 301 301
284 282 288 290 291 293 291 288 285 286 286 284 285 279 275 271 270 267 264 265 268 274 277 281 283 280 280 283 289 292 291 288 287 287 289 292 296 296 294 293 294 292 292 292 292 291 291 292 292 292 292 293 294 294 295 295 296 297 299 299 300 302 300 299 300 301 302 302 304 303 304 304 303 303 303 303 302 301 301 301 302 302 302 302 302 302
277 279 286 288 287 290 291 290 291 288 287 286 283 285 280 272 268 267 265 271 273 273 275 278 277 276 278 283 288 288 290 287 286 289 289 289 290 291 292 290 290 291 293 290 293 294 294 295 293 293 293 293 294 294 295 294 297 297 299 299 299 300 298 299 300 300 301 302 302 302 303 303 303 304 303 303 303 302 300 301 301 301 301 302 302 302
283 280 282 290 289 292 291 290 289 288 287 284 282 281 278 278 275 274 269 270 268 271 272 275 278 278 282 286 287 289 289 291 290 289 289 289 288 289 291 292 292 291 292 292 293 294 295 295 292 292 293 294 293 293 294 296 297 298 300 298 299 300 300 298 298 300 301 301 301 300 301 302 302 302 302 302 301 302 301 301 302 301 301 301 301 302
281 282 286 289 289 292 291 289 290 289 282 284 285 281 281 281 279 272 272 276 273 270 275 271 279 281 281 284 290 291 288 290 288 288 286 287 288 287 288 288 289 290 289 289 294 295 296 294 293 294 293 293 293 293 296 298 299 300 299 299 299 299 297 298 298 299 299 299 299 299 300 300 300 301 301 303 302 301 301 301 302 302 301 301 301 301
282 278 285 287 286 290 288 289 288 288 286 285 281 283 285 285 282 278 273 267 267 271 273 274 277 278 277 278 282 285 286 286 286 288 285 287 287 287 290 289 290 290 290 290 292 293 294 293 293 293 294 294 295 295 295 297 298 299 300 300 300 299 299 298 298 298 298 299 299 299 299 300 301 302 301 302 301 301 300 300 301 301 301 301 302 302
285 280 282 286 286 289 288 291 290 289 288 284 281 285 286 279 278 278 273 271 268 266 269 273 274 276 280 282 283 284 285 287 285 283 285 288 288 287 288 288 287 288 288 291 293 292 293 293 294 294 294 294 294 294 295 296 297 298 298 299 300 300 300 300 299 297 298 299 300 300 300 299 300 300 301 300 300 300 300 300 300 301 301 301 301 301
287 280 279 286 287 288 287 287 284 285 290 289 288 287 284 280 276 276 278 272 274 269 266 272 275 280 281 281 284 286 284 284 286 285 286 287 287 287 288 290 290 293 293 292 292 291 292 293 292 292 292 293 294 294 295 295 295 297 299 298 298 298 297 296 297 297 298 298 299 299 298 298 299 299 300 300 300 300 300 300 300 300 300 301 300 300
284 282 276 282 284 286 284 286 284 287 286 286 285 283 286 282 283 279 279 275 275 263 265 268 272 278 281 285 286 287 288 288 289 290 286 286 287 286 286 291 293 294 295 294 292 292 293 293 292 290 289 290 289 290 292 293 296 297 297 297 298 298 298 297 298 297 298 298 297 296 297 297 297 297 298 298 299 299 300 300 299 299 300 298 299 299
283 282 278 281 283 282 283 284 287 290 292 289 288 285 287 282 278 275 276 278 272 274 272 266 275 282 282 287 289 286 288 288 286 287 289 291 291 292 295 294 293 296 296 293 292 291 293 292 291 290 288 287 287 290 290 294 293 294 296 297 297 297 298 297 297 298 298 297 297 296 296 295 295 297 297 297 297 296 296 295 296 297 295 297 298 297
287 281 279 277 283 287 285 287 286 287 287 287 286 285 289 286 283 276 273 274 274 277 274 272 270 282 287 287 288 288 286 286 287 287 290 290 290 292 292 294 294 293 293 293 293 294 293 293 291 291 289 289 289 291 289 289 293 295 294 293 294 296 297 298 298 298 297 296 295 295 294 294 294 294 293 294 295 295 295 294 293 294 296 297 297 296
292 278 278 279 279 279 284 285 286 285 289 287 285 283 285 284 283 282 279 278 281 276 276 274 272 282 286 286 285 285 285 286 286 287 289 291 291 291 291 291 292 293 293 291 290 290 293 290 291 292 293 293 291 290 290 291 291 292 292 293 293 295 296 295 296 295 295 295 294 293 292 292 292 291 292 293 294 294 294 293 292 292 294 296 296 296
283 281 283 273 272 277 279 283 285 285 286 282 282 284 285 286 283 280 277 276 277 278 281 277 275 282 287 283 285 284 286 288 290 290 288 290 290 290 290 290 290 291 292 293 294 294 293 292 295 297 295 294 293 291 290 290 291 291 292 292 294 296 295 295 294 294 295 293 293 292 291 291 291 291 291 292 293 293 292 291 291 291 293 295 296 295
288 282 282 277 276 274 272 276 278 279 283 283 279 284 287 287 284 283 280 277 277 279 279 277 280 286 287 285 287 285 287 289 287 287 286 288 290 291 290 291 292 292 294 292 293 292 294 293 292 292 293 294 294 293 292 291 291 291 291 293 293 295 294 294 293 294 294 294 292 293 291 292 291 291 292 292 292 292 291 291 291 292 292 294 295 294
281 282 285 284 282 280 282 281 282 285 282 283 281 285 285 286 287 287 282 280 280 282 276 281 284 286 286 286 288 290 287 287 287 289 289 290 289 288 290 293 292 291 291 293 293 293 292 292 294 294 293 293 293 293 292 291 292 291 291 292 292 293 294 293 293 293 293 292 292 293 292 292 292 292 292 291 291 290 290 290 291 291 293 292 293 294
282 283 285 285 285 285 283 281 282 288 286 286 285 283 286 286 285 285 284 283 287 279 280 285 285 283 287 288 285 287 286 286 287 289 289 288 288 290 292 292 292 291 291 290 289 291 292 293 292 293 293 293 294 293 292 291 291 291 291 292 292 291 291 293 290 291 292 292 292 292 293 293 293 292 291 291 290 290 290 290 291 291 292 291 292 293
285 284 284 284 284 283 281 284 284 286 287 287 287 286 285 286 285 284 285 288 287 283 282 287 285 285 288 289 288 289 289 290 292 292 290 290 289 289 290 292 293 292 292 291 293 293 292 292 293 294 294 294 292 292 293 293 293 290 289 290 291 289 291 290 289 291 292 291 291 293 294 294 292 291 290 290 290 290 290 290 291 290 290 291 292 293
289 285 285 284 284 283 283 283 284 286 284 285 284 285 286 286 286 286 287 288 288 286 288 288 284 284 288 287 288 290 289 289 289 290 290 291 292 292 290 290 291 292 292 293 294 294 294 293 292 293 293 293 293 293 292 293 293 293 292 293 291 289 289 289 289 290 291 291 292 294 294 293 291 291 289 289 290 290 290 290 290 290 290 290 291 291
289 285 288 286 284 283 283 283 283 283 284 283 282 283 284 285 286 287 286 286 285 285 287 286 285 286 291 289 289 292 291 290 290 290 292 293 292 291 290 290 291 292 293 293 293 293 293 292 292 292 292 293 293 293 294 294 293 293 291 291 291 291 288 288 288 289 290 292 293 293 293 292 291 289 289 289 289 289 289 289 289 289 289 289 289 290
288 284 282 283 283 282 283 284 284 284 284 283 284 285 285 284 282 283 284 287 286 286 287 286 285 286 292 290 292 291 290 290 292 292 292 293 293 293 292 291 290 290 291 291 291 291 290 291 292 292 292 293 293 293 292 293 293 291 292 292 292 291 289 287 288 289 290 291 292 292 292 292 291 289 290 289 289 289 288 288 288 288 288 288 288 288
286 284 282 282 282 283 283 284 284 284 284 283 284 287 288 286 287 287 288 287 289 290 286 285 286 292 292 291 290 292 291 290 292 292 292 292 290 290 290 290 290 289 290 290 290 289 289 290 291 291 291 291 293 293 293 291 290 291 292 292 292 290 289 288 288 289 289 290 290 291 291 291 290 290 290 290 289 288 288 288 288 288 288 288 288 287
287 286 284 285 283 284 284 283 285 284 278 281 292 293 292 289 288 286 287 289 290 291 289 292 293 294 293 293 292 293 294 294 295 293 292 292 291 289 289 288 289 289 288 288 288 289 289 290 290 291 290 290 290 290 290 289 289 290 290 289 289 288 289 287 288 287 289 290 290 290 290 290 289 290 290 290 288 288 287 287 288 288 288 288 287 287
287 287 285 286 283 283 284 284 282 277 280 291 292 294 294 293 292 290 291 292 293 293 293 293 294 294 295 296 297 297 297 293 290 291 292 290 289 289 289 289 288 288 288 289 290 290 290 290 290 290 291 291 290 289 289 290 289 289 289 290 290 289 288 287 287 288 288 288 289 288 289 289 289 289 289 289 288 287 287 288 288 287 287 287 287 287
286 286 286 285 285 285 282 282 276 278 287 287 288 290 289 290 290 289 288 291 293 294 294 293 295 296 297 297 298 297 292 289 288 287 287 288 288 288 287 288 289 287 289 289 287 290 290 290 290 289 290 290 288 289 287 288 288 288 289 288 288 288 288 287 287 288 288 288 288 289 289 288 289 289 289 288 288 287 287 287 287 287 287 286 287 287
289 287 286 284 287 281 283 282 281 287 286 287 287 285 288 286 286 287 284 288 293 294 294 294 295 296 296 297 292 288 285 287 287 289 288 289 289 288 289 287 288 289 288 289 288 289 290 288 287 289 288 288 288 288 289 288 287 286 287 287 288 287 287 286 287 288 288 288 289 289 288 288 288 289 288 288 287 287 287 287 287 287 287 286 286 286
291 287 287 285 283 286 282 280 281 281 277 284 290 289 290 290 291 291 289 285 289 288 290 292 293 294 291 288 286 285 285 290 287 287 290 288 289 288 286 286 285 285 286 287 288 288 288 288 287 287 286 287 288 288 287 286 286 286 287 288 288 287 287 286 287 288 288 288 289 289 288 288 288 288 288 288 288 288 288 288 287 287 286 286 286 285
290 290 287 286 284 284 282 279 279 278 281 286 285 288 287 288 292 289 287 284 288 284 287 288 287 287 287 288 287 286 289 285 285 285 290 287 287 287 286 286 285 286 286 287 287 288 289 289 287 287 287 287 288 290 288 286 286 286 287 288 288 287 287 288 288 288 288 289 289 288 288 288 287 288 288 288 288 288 288 287 287 287 286 286 286 286
287 287 286 283 282 284 282 280 278 283 281 284 285 286 284 286 292 289 279 279 287 284 285 287 287 286 286 286 287 285 283 280 281 284 286 287 285 285 286 286 287 287 287 287 287 286 287 286 287 289 289 289 289 288 286 285 286 286 287 287 287 287 288 288 288 288 288 287 287 287 287 287 287 287 287 288 288 288 287 287 286 285 284 284 284 285
284 284 285 281 283 283 284 281 283 283 286 286 284 285 282 287 289 281 277 285 286 285 285 286 286 287 286 286 285 283 285 285 285 286 285 285 285 287 285 284 284 285 286 286 287 287 285 286 286 287 287 288 288 288 287 286 285 286 286 286 286 287 288 288 288 287 287 287 287 287 287 287 287 287 287 287 287 288 287 286 285 284 283 283 282 282
284 285 284 285 282 281 282 280 281 284 286 287 282 284 285 287 279 279 287 285 287 286 286 285 286 285 286 286 284 284 284 284 284 284 284 285 284 285 285 285 284 285 285 285 286 286 287 286 286 287 288 288 288 288 287 285 285 287 286 286 287 288 288 287 287 286 286 286 286 287 287 287 287 286 287 287 286 286 286 284 283 283 283 282 281 281
284 283 281 282 284 284 282 280 279 275 285 285 287 285 286 283 283 286 286 285 285 286 286 284 285 287 286 286 285 284 284 284 284 284 284 284 284 284 285 285 286 286 286 286 287 287 285 286 286 287 287 288 287 286 284 281 284 285 286 286 287 288 287 286 286 285 285 285 286 286 286 286 285 286 286 285 285 285 285 282 280 280 280 280 279 279
288 282 281 284 287 279 280 277 278 285 287 285 287 284 283 283 287 285 286 285 284 284 285 285 284 284 283 285 286 286 285 285 285 285 285 284 284 284 284 285 285 285 285 285 285 286 285 285 286 286 287 287 288 287 287 285 285 286 285 286 287 287 286 286 286 285 284 285 285 285 285 285 284 284 284 284 283 283 283 281 279 279 279 279 279 279
285 283 284 282 286 285 281 283 285 284 285 286 285 284 288 288 287 284 286 287 286 285 285 285 286 286 286 287 287 287 287 288 287 287 286 286 285 285 285 285 286 286 285 284 285 285 284 285 285 285 286 286 286 287 287 285 285 285 285 287 287 286 286 285 285 284 284 284 284 284 284 283 282 282 281 282 282 282 281 279 277 278 277 278 278 278
281 284 282 282 282 282 283 285 284 283 284 283 283 283 287 288 287 287 286 285 286 286 287 286 286 286 286 286 287 286 285 286 285 285 285 284 284 283 283 284 284 284 284 284 284 284 284 284 284 284 284 286 286 285 286 286 282 284 286 287 286 285 284 284 283 283 283 284 284 283 282 281 281 279 279 280 280 281 281 281 279 279 278 278 278 278
279 279 280 280 278 282 278 283 284 284 283 282 283 283 283 283 283 282 282 283 284 284 284 284 285 286 286 285 285 285 284 283 282 283 282 283 283 283 283 283 283 283 283 283 284 284 284 284 284 284 284 284 286 285 285 285 286 285 285 285 285 284 283 282 282 282 282 283 283 282 280 279 281 280 279 277 278 278 279 279 279 279 279 278 278 278
278 280 281 277 279 279 277 281 283 282 281 281 282 284 283 282 281 281 281 281 281 281 281 281 281 282 281 281 281 280 280 281 281 281 281 282 282 282 282 282 282 282 283 282 282 283 283 284 283 283 284 284 285 285 284 285 285 285 285 284 284 282 281 281 282 282 283 283 283 282 281 280 280 280 280 278 278 278 278 278 279 279 279 279 279 279
279 282 273 276 281 278 278 280 279 280 281 280 279 280 281 281 281 280 280 279 278 277 278 278 280 279 280 280 280 279 279 279 279 280 280 280 280 280 281 281 281 281 282 282 282 281 282 282 283 283 283 284 285 285 284 284 285 285 284 284 283 281 280 281 282 282 282 282 282 281 281 280 280 280 280 279 278 279 280 280 280 280 280 281 281 282
280 277 276 277 272 273 278 279 279 277 276 279 278 278 278 279 279 279 278 277 276 276 276 276 277 278 279 279 279 279 278 279 279 279 278 278 278 279 279 279 280 280 280 281 281 281 281 281 281 282 282 283 284 283 283 283 284 284 284 282 281 280 280 281 282 281 282 282 281 281 280 280 279 279 279 279 279 278 278 279 282 282 281 280 282 283
280 279 278 275 276 274 278 279 279 280 279 279 278 276 276 277 277 277 276 275 275 274 275 274 274 275 276 276 278 277 276 277 276 276 275 276 276 277 278 278 277 277 278 278 278 279 279 279 280 280 280 281 282 282 282 282 283 283 283 281 280 279 279 279 280 281 281 282 281 281 281 280 279 279 279 279 278 278 278 277 278 284 284 283 282 283
Wind_Speed
1 4 6 6 9 9 5 8 5 4 7 4 4 4 2 3 2 2 1 1 0 0 6 7 6 6 10 11 12 10 4 3 6 9 11 10 11 10 10 10 13 12 16 9 4 5 6 8 8 6 5 6 5 5 7 8 9 10 11 9 11 8 6 8 8 8 9 9 6 5 10 12 8 8 7 8 7 8 8 9 9 9 9 9 10 10
4 4 6 8 7 8 8 4 5 5 2 6 6 5 0 0 1 1 0 1 2 1 2 2 4 9 11 11 11 9 4 10 11 12 12 14 12 10 10 13 13 14 6 6 7 5 5 6 6 6 6 6 7 9 9 11 13 12 9 10 10 7 8 9 10 10 9 9 11 11 11 9 6 7 8 9 7 8 6 7 8 9 9 10 11 11
2 6 9 8 5 2 2 4 3 6 4 2 3 3 2 1 2 3 2 2 1 2 7 3 6 13 9 9 10 9 12 10 6 9 11 10 10 9 11 13 12 8 12 6 7 5 6 7 5 5 6 7 11 10 11 10 7 7 8 9 8 8 9 9 9 9 10 8 5 5 3 5 2 1 3 4 4 4 5 6 7 8 8 10 10 10
2 5 11 3 4 5 3 4 5 5 6 5 4 1 3 2 1 2 3 2 1 1 2 3 7 14 9 5 10 11 8 6 6 7 9 8 10 11 14 12 10 12 12 10 8 9 7 5 5 4 6 10 7 6 5 6 9 8 8 8 9 9 9 9 9 9 5 4 2 2 2 2 3 4 2 1 1 5 5 8 7 6 7 7 8 8
7 1 0 6 3 4 5 1 6 4 3 1 3 3 2 1 1 3 1 1 1 1 2 3 5 11 4 2 3 2 2 3 6 4 6 9 10 11 9 7 10 12 8 8 8 8 6 5 7 10 8 4 7 8 8 9 10 9 12 11 11 9 10 9 8 8 6 5 4 3 5 4 3 2 2 3 4 6 7 5 7 7 3 5 6 7
5 5 3 5 3 2 4 2 3 8 1 2 3 5 2 4 4 1 2 2 6 2 3 2 4 6 5 4 8 10 5 7 4 3 10 10 7 6 9 15 8 5 5 9 10 6 5 7 5 4 4 6 6 8 9 8 9 7 8 8 8 7 7 8 7 8 8 8 8 7 6 5 4 6 5 10 11 8 7 8 2 2 4 5 5 6
5 1 3 5 4 3 3 2 2 3 5 1 3 4 5 7 5 3 0 2 1 1 1 3 2 9 5 8 6 7 6 10 10 7 13 12 11 6 8 7 5 6 7 5 5 5 5 5 5 5 6 7 7 9 5 5 6 6 7 7 8 8 7 6 6 7 8 6 7 10 10 9 10 10 8 5 4 6 5 3 5 6 5 5 6 6
1 1 5 4 4 3 3 1 3 7 6 2 1 5 6 6 4 3 3 2 3 1 4 2 3 3 11 9 3 1 4 8 9 12 12 10 7 7 7 7 7 6 5 5 6 6 5 4 6 9 8 7 10 5 4 5 5 7 8 8 8 6 6 6 7 8 9 10 8 8 8 8 9 10 8 7 6 4 5 6 6 5 5 5 5 5
3 3 3 3 2 3 5 3 2 4 4 2 2 7 4 5 4 5 3 3 0 2 8 3 0 1 5 10 3 1 7 7 10 11 10 10 7 7 6 7 7 6 6 5 6 7 7 7 6 5 6 6 3 4 6 7 6 6 5 5 5 6 6 5 7 9 8 9 10 10 9 9 8 7 6 4 4 5 5 6 4 5 5 5 4 5
2 3 5 7 6 5 3 1 1 5 3 1 4 6 6 6 6 3 3 2 2 2 8 3 2 2 8 9 7 3 1 6 7 8 8 7 8 7 6 6 6 5 5 4 4 4 4 4 3 3 2 1 4 2 2 3 3 4 4 4 5 6 6 6 7 8 9 8 8 9 9 11 8 5 3 3 5 5 4 7 6 5 5 5 5 6
1 2 5 4 4 3 4 1 1 0 2 6 5 7 6 8 4 3 6 2 2 4 6 7 6 4 6 6 6 1 2 2 4 4 4 5 4 4 3 4 3 2 1 1 1 2 3 2 2 1 1 2 1 2 3 4 3 3 4 4 6 6 6 6 8 8 9 8 7 9 10 10 9 7 6 6 6 6 5 7 7 7 7 7 7 7
2 1 1 1 2 3 3 5 5 2 3 5 2 3 4 2 7 3 4 5 1 6 5 1 2 2 6 6 5 7 5 3 3 2 5 5 5 4 4 1 1 2 2 2 1 1 3 3 2 3 1 1 2 2 3 3 2 2 3 4 6 5 6 6 6 7 8 8 9 8 9 10 9 9 9 10 10 9 10 9 9 7 7 8 7 8
2 2 2 3 4 8 4 8 4 4 3 6 6 7 4 3 5 3 3 2 5 6 0 4 1 1 13 7 7 8 7 6 7 2 1 1 1 1 1 2 3 3 3 2 1 2 3 3 2 2 3 3 3 4 3 3 4 4 4 5 7 8 6 7 6 8 8 8 9 10 9 9 8 9 10 10 10 8 10 9 8 8 9 7 8 8
3 2 2 2 3 3 6 9 2 2 0 6 7 6 5 1 1 4 4 2 6 5 5 2 1 6 3 4 13 14 8 5 6 5 4 4 1 1 2 3 4 2 2 4 5 4 4 4 4 3 4 4 4 4 4 4 4 4 5 6 7 8 6 6 6 8 8 10 9 9 9 9 8 10 10 10 9 9 9 8 10 10 10 9 10 9
3 3 6 5 2 2 4 7 12 9 9 8 3 10 9 9 5 4 3 4 6 5 3 5 1 7 2 1 3 6 8 4 4 5 6 5 4 5 5 5 4 3 2 4 5 5 5 5 3 4 4 5 5 4 4 4 4 4 5 5 7 6 5 6 7 7 9 9 8 7 8 8 8 9 8 8 8 8 9 8 9 9 8 9 9 9
8 4 5 3 1 7 8 2 4 6 3 0 3 6 5 7 5 1 5 3 1 2 2 1 6 4 5 3 8 6 8 9 4 5 5 7 5 5 5 5 2 3 4 4 5 6 7 6 5 5 5 5 5 5 4 5 5 6 7 6 7 8 6 7 7 7 9 8 7 7 8 9 9 8 8 7 7 7 8 9 10 9 9 9 8 7
3 4 1 3 5 5 4 2 1 3 6 4 4 6 6 3 7 4 1 1 1 3 10 2 8 6 8 6 9 8 5 9 5 5 6 5 8 3 4 0 2 4 4 4 5 6 7 6 5 6 6 5 5 5 7 7 7 9 8 7 7 7 5 6 7 8 7 7 7 8 8 8 8 9 10 10 9 9 8 8 9 9 9 8 8 8
10 5 1 4 3 0 1 1 3 3 3 7 3 7 1 2 4 4 5 2 1 4 8 2 9 4 3 9 3 1 2 6 6 4 3 7 7 6 6 4 2 4 4 5 5 5 6 5 6 5 5 6 7 7 6 8 7 7 7 8 9 7 8 7 7 7 7 8 9 8 9 9 10 10 10 9 8 8 8 8 8 8 8 9 9 8
6 1 1 1 1 4 3 2 1 2 2 4 3 3 6 3 2 2 4 4 1 3 7 4 2 7 10 9 1 1 2 2 3 3 4 8 8 5 5 4 3 4 3 4 5 5 5 5 5 6 6 5 5 6 7 7 5 5 6 7 8 10 10 8 7 6 6 7 8 8 10 10 10 8 8 7 7 7 9 10 9 9 9 8 9 9
1 5 2 1 2 1 1 3 10 3 2 1 3 4 1 4 2 5 6 4 5 5 1 8 3 13 4 7 9 6 7 6 6 5 5 6 6 4 4 2 2 5 3 2 2 2 3 5 6 5 4 5 5 5 6 6 4 7 9 7 7 5 5 5 6 7 9 9 9 8 6 7 7 7 8 8 8 9 10 10 9 9 8 10 7 8
3 2 6 1 3 2 3 5 9 10 9 3 3 4 1 0 2 4 1 4 4 4 5 4 8 8 2 7 9 9 8 8 7 7 5 6 3 3 2 1 3 3 4 2 2 3 4 5 5 4 3 4 4 4 4 5 7 8 6 7 6 8 8 8 8 8 9 8 9 8 9 8 8 9 8 8 9 10 10 9 9 9 9 6 9 8
3 2 7 2 1 5 7 3 7 14 15 13 13 11 12 9 4 4 8 2 1 2 5 1 13 9 5 3 8 8 10 8 3 5 3 3 4 5 1 0 0 2 1 2 4 4 5 5 5 5 5 3 4 6 5 6 5 6 7 8 6 6 7 8 8 8 8 7 7 9 9 8 7 8 8 9 9 10 10 9 9 8 7 9 9 8
5 3 8 5 9 10 4 1 3 3 2 0 3 7 8 7 6 5 6 5 1 4 4 3 1 14 9 7 6 5 3 5 6 5 4 3 4 1 1 1 1 2 3 4 5 6 6 6 5 5 6 6 6 6 6 5 6 7 7 5 5 7 10 8 9 7 7 7 7 8 7 7 8 7 9 10 10 11 11 9 7 7 9 10 8 8
6 3 4 1 1 3 3 3 1 2 2 3 1 2 5 7 7 8 6 7 8 2 2 3 2 11 2 1 3 3 2 1 1 3 5 2 0 2 4 5 5 6 5 4 4 3 4 6 7 7 7 6 6 6 6 6 6 6 6 6 5 9 10 8 8 6 6 7 8 7 7 9 8 8 10 11 11 12 10 8 8 8 9 9 8 9
5 4 7 2 2 2 4 3 2 2 1 3 2 2 4 3 3 2 5 2 3 8 9 7 11 13 1 3 1 2 4 3 3 1 1 4 3 3 3 4 3 3 3 6 7 7 7 7 8 9 9 8 7 6 6 6 6 6 8 6 8 9 8 7 6 7 8 7 9 8 9 10 9 10 12 13 10 11 9 8 7 8 9 9 9 9
7 5 9 8 12 11 9 11 13 8 6 2 3 6 7 11 8 5 5 2 6 6 7 7 11 10 1 2 2 3 4 4 1 3 3 2 2 2 2 3 5 7 8 7 8 8 8 6 6 8 9 9 8 7 7 7 6 7 7 8 7 8 6 7 6 8 8 8 8 9 10 11 10 12 14 12 10 10 8 8 8 9 8 9 11 9
3 2 7 11 13 14 13 6 2 8 4 8 5 9 7 7 10 9 3 6 14 9 4 9 14 17 7 2 1 2 0 3 1 6 4 3 3 2 2 5 6 5 5 6 6 7 7 8 9 8 8 8 9 8 7 7 8 7 7 9 8 7 7 6 6 6 7 8 9 9 11 11 12 12 11 11 10 8 8 9 9 9 11 9 10 11
3 3 9 11 12 11 4 4 6 13 13 12 10 9 13 11 10 12 12 16 10 1 12 12 11 8 20 11 5 8 5 4 6 6 4 2 3 3 5 7 8 7 6 4 5 6 7 8 8 8 9 9 9 9 8 6 7 8 7 9 7 5 6 6 5 6 8 8 8 9 12 13 11 9 10 8 8 9 9 9 10 11 9 8 11 12
6 7 5 6 8 4 4 3 6 7 10 10 14 14 13 14 12 16 19 20 12 11 17 17 9 14 21 12 8 12 6 5 9 10 4 2 4 5 6 7 8 7 7 6 7 7 6 7 7 8 9 9 8 9 10 10 10 6 6 7 8 5 7 4 4 6 7 7 8 12 13 11 8 7 8 7 8 9 10 11 10 9 9 10 11 10
3 4 1 2 6 4 4 3 3 9 3 1 6 9 12 16 20 22 21 20 19 15 17 18 6 10 14 2 8 9 6 6 5 3 1 3 6 7 6 7 6 8 8 7 8 8 6 6 6 7 7 8 8 8 8 9 8 8 8 10 7 5 5 2 5 7 7 8 11 12 11 8 6 7 5 7 10 10 9 9 9 9 10 11 11 10
3 3 3 1 2 4 4 2 3 4 3 5 4 5 10 13 15 16 12 8 3 7 10 13 12 17 12 5 5 9 4 3 5 7 8 8 5 3 4 6 6 7 8 8 7 8 8 8 8 7 7 7 8 8 8 7 7 7 8 7 7 7 4 4 6 6 7 10 11 10 8 7 8 5 7 9 8 9 9 9 8 9 10 11 11 11
2 1 2 2 4 4 4 6 4 3 2 3 6 10 12 9 8 6 9 10 10 15 14 10 13 18 10 6 8 4 3 5 7 7 7 5 2 2 5 5 4 5 6 6 6 6 7 7 7 8 7 8 8 7 6 7 7 7 8 7 7 7 4 4 5 7 8 10 9 8 9 9 7 7 9 8 10 9 8 7 8 10 10 10 10 10
2 4 3 2 5 9 2 8 6 5 2 5 13 20 16 6 9 6 5 6 13 11 9 11 18 13 5 2 4 7 4 5 7 4 1 1 2 4 3 3 3 3 4 4 5 5 5 6 6 7 7 6 8 9 8 6 6 7 7 7 8 7 5 5 5 6 8 9 8 9 8 7 8 9 9 10 9 7 6 8 9 10 10 12 10 7
3 4 2 1 4 5 3 6 5 4 11 15 13 5 10 16 13 9 11 14 9 9 9 10 10 8 7 7 7 11 8 7 5 3 1 0 1 1 2 0 1 2 4 4 4 5 5 5 6 6 5 6 7 6 6 6 6 7 6 7 6 5 6 5 6 6 9 8 8 8 7 7 8 10 11 9 7 7 8 8 12 11 9 8 7 10
5 4 4 2 3 4 3 6 4 14 14 6 1 6 12 12 12 17 17 14 11 12 11 12 12 14 15 14 13 13 10 3 8 7 6 4 4 2 1 1 2 4 4 5 7 7 6 6 7 7 8 7 7 7 8 9 6 7 9 8 9 7 6 5 6 7 7 7 7 6 8 8 8 10 10 8 7 7 9 11 11 10 9 9 11 11
8 9 4 3 3 0 3 6 7 6 1 4 6 4 1 2 3 4 8 9 11 13 14 16 17 17 15 15 13 7 4 5 5 5 3 2 2 3 5 5 5 5 5 5 5 7 7 8 8 8 10 8 7 8 5 6 7 8 9 7 6 8 7 6 7 8 6 7 8 8 8 7 8 9 9 8 8 9 11 11 11 11 9 9 9 9
11 5 5 4 5 7 5 8 10 5 8 5 6 4 6 6 7 9 9 10 10 10 11 11 13 13 13 11 3 4 1 3 4 1 0 2 1 0 0 4 4 6 5 7 5 7 6 5 6 8 6 8 7 7 7 6 6 6 8 8 7 6 6 5 7 8 7 8 9 9 7 7 8 9 9 8 8 10 11 11 11 10 7 9 10 10
8 10 5 7 4 8 9 9 5 7 12 14 10 1 5 6 7 8 8 5 1 1 1 8 12 10 4 3 3 3 1 1 5 1 1 2 0 3 2 3 4 4 5 6 6 6 6 6 6 5 5 7 9 7 5 5 6 7 8 9 7 7 8 6 7 7 7 9 9 8 8 7 8 10 9 8 11 12 11 10 8 9 8 11 11 11
3 2 4 11 5 5 7 9 9 9 8 4 3 5 5 5 8 4 4 8 2 1 0 5 4 3 2 0 3 1 1 4 3 1 7 4 3 0 2 5 4 4 5 5 5 9 9 9 7 8 7 7 9 10 8 7 7 7 10 10 10 9 10 10 8 8 8 9 8 8 8 8 8 9 10 10 12 11 11 10 11 9 8 10 9 11
10 7 3 6 7 8 8 8 7 3 4 2 1 1 1 3 8 6 7 5 6 3 2 4 6 4 2 0 1 6 3 3 1 2 3 4 4 5 1 5 6 6 6 6 6 5 6 8 9 10 11 11 11 8 6 6 6 7 8 10 8 10 11 10 9 9 8 9 9 9 9 8 9 10 10 12 11 9 10 8 7 8 8 9 9 9
8 5 9 13 9 10 11 7 2 5 3 4 5 3 1 4 5 8 13 3 4 4 3 5 5 4 3 2 1 3 2 2 2 2 3 5 6 7 4 2 4 5 7 7 7 6 5 5 5 7 8 9 9 8 6 5 6 8 8 8 9 10 10 9 9 9 9 9 9 10 10 9 8 11 11 10 10 9 8 7 8 7 8 9 8 8
7 5 3 8 11 10 9 10 7 5 5 5 1 4 4 7 5 11 1 2 9 5 4 4 5 3 3 2 2 2 2 2 3 3 4 5 5 6 6 6 5 5 5 6 7 7 7 5 6 8 9 7 7 7 7 7 9 9 8 8 11 11 9 8 9 9 9 10 10 11 10 10 10 9 10 9 8 9 9 7 7 8 8 7 7 9
9 8 7 10 6 6 4 8 7 11 2 3 6 3 2 6 5 5 7 1 3 5 4 3 2 3 4 1 2 2 4 4 3 3 3 4 4 5 5 6 7 7 9 9 9 6 5 8 9 10 10 9 6 5 5 4 6 8 8 11 13 10 9 8 8 9 10 10 11 11 11 10 10 10 7 8 8 9 10 6 6 7 6 7 7 8
7 7 3 7 8 7 9 10 8 5 2 3 4 7 3 3 5 6 7 8 2 4 5 4 3 4 2 2 3 2 2 3 3 2 2 1 3 4 5 6 6 6 6 5 5 8 7 8 8 9 9 10 10 9 7 5 10 9 9 12 9 8 9 9 10 9 11 11 11 11 11 10 10 9 8 8 8 8 9 7 6 6 7 7 8 8
6 9 6 7 7 9 7 4 0 1 1 1 2 4 8 6 5 5 6 6 6 5 3 3 3 2 3 2 3 4 4 4 5 4 5 5 2 4 5 7 7 8 7 7 8 8 6 7 10 11 11 9 8 9 9 7 8 12 14 13 8 10 11 11 11 11 12 13 12 11 11 10 9 9 8 8 7 8 8 7 6 7 6 7 7 7
2 3 1 4 5 0 1 1 2 1 1 1 3 3 9 7 4 5 4 2 1 3 4 2 1 1 2 0 0 3 3 6 7 9 8 7 6 5 5 7 8 7 8 7 6 6 6 8 8 9 11 13 9 7 9 9 5 10 14 12 9 9 10 11 12 13 14 13 12 12 10 10 11 8 8 8 7 8 8 8 8 8 7 7 8 8
3 1 2 3 2 5 6 5 7 6 1 1 3 4 4 3 2 1 5 4 4 5 7 6 5 4 4 5 4 4 5 5 6 7 6 7 8 7 7 7 7 7 8 11 11 10 10 8 9 11 11 13 11 7 8 10 10 9 9 11 10 9 9 10 11 12 13 14 12 11 10 10 10 9 7 6 7 7 7 6 7 7 7 8 8 8
3 3 3 2 1 5 4 4 3 1 0 3 3 6 5 6 7 8 6 4 6 5 6 5 4 6 4 4 2 2 3 3 4 7 8 8 9 9 9 9 9 10 8 5 8 9 10 11 12 13 13 13 12 7 7 9 10 11 10 9 9 9 9 11 12 12 14 15 11 10 9 9 11 10 8 7 7 7 7 6 7 8 10 10 10 9
3 4 4 4 6 2 3 1 0 1 6 5 5 5 4 4 8 6 6 7 7 8 6 4 5 3 3 2 3 4 5 5 3 5 7 8 9 9 10 11 11 10 10 9 8 7 10 12 13 13 14 15 13 10 9 10 11 10 10 10 9 8 9 12 13 13 13 13 11 11 9 8 9 8 8 8 7 8 8 9 9 10 9 8 8 9
4 6 2 3 1 2 7 6 5 3 2 1 1 2 3 3 7 7 5 8 8 7 7 7 6 3 3 4 4 5 5 8 7 7 10 10 9 10 11 12 12 13 12 10 9 9 9 9 11 14 16 15 12 11 12 13 13 11 9 8 8 8 9 12 13 13 14 12 10 11 9 8 9 8 8 8 8 8 8 9 10 9 9 8 9 13
7 6 7 7 8 6 3 3 4 4 4 1 4 2 2 2 5 7 6 5 5 4 4 4 5 5 4 3 3 3 3 5 8 7 9 9 9 8 9 11 12 13 13 12 12 11 9 9 10 12 14 15 13 13 13 13 13 12 9 7 7 8 9 10 11 11 13 12 11 11 10 9 9 8 8 8 8 7 8 8 7 10 12 8 7 10
Wind_Direction
112 117 173 185 203 199 189 176 175 174 150 111 88 103 176 179 280 275 285 257 106 83 237 239 258 258 267 263 266 267 295 249 254 256 250 251 251 247 247 244 245 245 244 262 265 237 224 225 225 224 206 208 203 200 192 192 195 195 194 183 201 195 180 176 179 183 181 188 195 204 202 210 200 200 199 203 205 203 205 199 199 197 197 193 195 194
63 119 232 216 209 186 193 168 97 78 41 128 118 112 181 186 187 246 230 332 312 145 290 13 309 266 253 265 265 272 280 263 240 241 246 245 244 247 244 250 246 244 276 284 282 272 257 241 223 203 196 186 189 212 195 195 198 196 186 190 195 172 185 192 192 190 192 197 199 196 206 203 183 191 197 209 206 207 203 200 201 201 200 199 201 199
52 176 234 222 205 123 91 140 133 134 122 47 149 164 118 261 246 300 307 319 299 76 266 358 332 284 267 254 262 250 245 244 233 224 238 239 252 249 248 247 256 270 262 266 265 274 259 249 236 201 204 206 209 203 198 201 187 184 187 196 189 185 186 197 194 187 200 202 206 205 202 181 179 231 233 237 212 202 203 205 203 203 197 195 201 201
90 286 243 216 138 112 60 123 117 73 62 109 95 79 232 237 99 292 282 336 344 122 290 349 318 288 288 262 252 251 245 265 249 237 244 228 237 242 241 238 243 252 256 264 255 255 253 248 237 217 213 214 205 202 196 188 192 192 196 195 192 191 192 191 195 193 192 167 133 68 94 112 134 183 143 124 131 201 209 214 206 207 200 194 195 195
188 219 96 121 129 118 129 81 135 146 178 6 120 129 149 176 223 153 271 300 323 25 55 353 306 292 340 348 339 312 306 278 276 271 260 254 235 241 260 276 240 246 260 269 273 263 265 247 220 211 218 184 198 203 198 193 193 195 198 198 193 192 192 192 184 180 156 123 108 82 57 66 73 54 115 166 218 207 211 209 205 209 192 193 189 195
264 262 128 88 84 77 109 99 184 136 195 334 234 171 188 161 140 262 0 53 16 349 328 31 350 297 291 286 251 275 318 294 262 309 279 264 241 241 248 245 258 264 235 238 255 262 243 234 243 247 218 198 211 210 209 199 199 192 198 195 196 196 192 188 180 170 160 170 168 161 159 173 187 207 191 207 210 201 207 212 166 173 198 198 196 190
200 9 131 158 135 107 99 159 221 121 162 95 267 155 147 137 122 123 347 63 340 196 311 59 120 276 290 276 266 268 287 283 304 291 266 268 268 253 248 267 275 246 259 261 275 278 257 239 224 236 217 212 209 222 194 194 199 200 198 198 196 196 193 178 169 167 165 172 181 190 197 199 201 209 221 210 200 194 209 183 194 204 205 201 195 198
95 57 72 68 91 103 118 167 218 134 106 242 247 123 113 105 118 152 109 128 216 258 299 38 113 212 305 293 195 7 323 288 293 278 276 276 276 269 261 259 261 256 250 244 248 252 252 248 211 214 213 205 215 203 179 198 196 199 201 194 197 192 184 181 168 173 178 182 185 192 204 203 208 210 211 189 201 187 180 195 208 204 218 213 208 199
147 176 131 106 87 100 177 208 192 129 118 221 200 131 146 140 147 127 92 120 74 24 285 326 272 294 253 262 304 294 306 307 287 285 289 290 285 271 262 259 253 244 234 222 232 238 231 224 222 226 223 227 221 188 198 200 203 204 200 196 187 190 182 183 176 178 188 190 187 193 194 211 219 212 209 186 191 175 180 198 204 207 217 218 224 219
356 167 209 147 133 189 232 265 220 142 81 254 136 92 87 77 70 94 101 81 336 45 267 201 196 223 270 285 335 334 269 279 274 292 294 295 289 287 279 275 265 265 250 231 247 280 284 271 271 258 274 245 224 232 226 232 213 210 196 193 188 201 187 184 186 186 191 192 183 192 202 211 213 202 194 169 198 194 181 206 202 204 208 214 219 223
245 306 179 92 180 194 139 41 138 148 125 132 81 68 21 37 25 21 60 84 42 283 253 220 211 166 282 274 238 132 205 204 285 307 307 313 328 326 295 260 265 251 293 21 352 327 313 281 234 315 225 285 292 236 213 221 213 206 198 196 203 206 191 188 192 188 193 192 191 202 202 208 207 197 190 192 209 194 196 209 206 199 206 203 211 207
10 358 105 288 96 114 103 80 14 53 73 115 82 116 47 341 12 29 347 37 135 266 265 268 228 111 202 288 294 237 267 240 212 332 330 350 7 355 352 334 310 335 344 353 21 342 330 337 13 40 332 301 267 257 233 224 216 208 208 199 211 213 199 194 193 191 196 192 201 207 203 206 205 193 197 205 207 197 202 204 206 202 204 212 211 209
67 95 287 329 196 127 103 82 354 11 9 79 85 61 117 251 34 298 16 262 215 222 264 343 195 333 242 218 273 287 271 254 215 239 282 286 357 7 349 315 307 300 337 329 307 289 303 294 328 333 296 302 278 245 235 221 206 203 203 204 209 221 202 196 188 194 197 198 204 204 205 208 201 201 206 209 211 199 204 202 206 196 209 206 213 213
267 293 340 283 16 233 135 124 160 88 358 105 140 139 106 118 128 251 275 237 304 289 268 339 19 259 267 270 228 239 247 210 205 244 274 235 293 257 263 264 269 346 328 293 283 279 267 261 259 251 260 263 268 262 249 234 213 211 210 209 213 226 198 196 192 197 199 207 208 205 206 205 198 210 209 213 211 203 204 201 207 204 204 206 212 206
134 298 253 144 225 179 178 161 174 169 169 206 114 154 178 151 161 213 193 210 224 220 289 278 76 234 111 253 305 260 273 247 239 243 260 250 249 238 258 280 316 330 297 269 277 271 268 268 252 257 251 249 248 253 249 235 222 216 225 216 222 229 215 200 203 196 206 211 211 209 211 208 206 213 213 217 211 202 203 206 211 210 207 210 208 208
207 208 263 227 298 154 179 237 114 90 52 7 149 73 96 225 137 157 208 161 244 332 341 212 213 193 169 274 288 249 287 303 304 311 310 297 238 249 286 285 360 299 265 258 264 276 271 261 269 262 257 250 249 244 242 231 214 212 219 213 220 222 216 207 204 209 208 213 208 211 210 214 212 215 216 220 211 212 204 207 208 211 207 211 205 203
49 248 307 312 37 165 181 120 179 143 183 224 111 207 212 165 106 87 29 11 77 37 257 145 296 283 300 310 265 291 334 289 310 308 304 309 336 4 271 344 269 255 243 256 249 253 262 273 256 243 245 256 254 249 236 234 221 216 207 206 220 225 225 213 212 212 210 212 209 216 215 215 215 215 215 216 214 211 205 207 212 212 211 207 204 201
152 230 305 127 211 326 236 151 104 31 149 96 188 235 169 113 110 137 218 343 50 202 267 86 246 300 33 285 320 13 261 255 281 266 293 316 299 307 286 61 251 233 233 247 245 252 258 264 265 256 245 235 234 236 242 238 231 233 218 201 209 216 220 221 210 211 209 211 215 217 218 219 218 219 221 220 221 212 210 214 214 214 212 210 205 201
125 176 305 329 136 287 343 129 28 350 47 143 195 200 119 253 236 306 93 256 160 274 273 291 278 265 193 241 28 55 170 206 265 288 316 285 283 296 338 298 268 264 277 280 275 273 272 264 264 257 248 246 245 246 244 250 236 235 233 216 206 215 216 216 208 206 217 216 219 218 219 217 221 224 226 226 225 216 217 217 214 214 216 210 206 206
127 163 282 328 135 300 28 115 198 186 360 43 75 96 124 99 170 133 202 173 126 245 43 289 75 264 156 214 180 201 219 220 257 264 240 267 270 290 280 330 312 351 339 336 299 286 272 264 248 246 258 272 259 250 248 246 241 234 230 218 217 226 226 218 209 201 215 216 220 226 224 227 225 225 225 223 219 223 224 221 216 216 215 213 204 210
176 144 221 287 300 88 186 205 205 156 156 157 141 194 166 26 231 110 51 139 172 181 184 263 303 259 246 191 167 202 217 228 230 266 288 278 271 226 256 332 340 349 349 319 264 258 264 280 306 311 283 266 279 274 269 248 235 234 228 226 211 211 221 225 218 210 220 209 222 222 224 222 219 225 222 229 223 227 228 224 218 217 214 205 213 199
129 179 184 148 96 232 244 244 175 180 183 176 175 196 180 133 149 154 255 37 116 150 238 148 263 274 250 176 187 187 218 217 211 170 200 113 77 78 43 232 202 7 300 253 264 290 299 314 320 320 313 296 302 290 276 254 249 246 228 226 211 214 227 222 223 219 221 215 220 221 224 224 224 222 223 228 227 228 228 221 217 213 205 214 214 199
152 141 109 179 202 204 215 238 271 256 13 104 160 222 179 175 125 150 192 253 354 245 125 193 22 273 156 189 202 202 173 196 176 168 161 114 110 108 307 286 296 251 292 316 320 323 314 309 308 298 288 288 281 273 270 267 246 241 238 228 217 214 230 214 222 217 216 216 221 226 224 225 226 221 225 227 229 230 226 220 216 204 209 213 211 206
99 97 123 295 319 314 316 316 3 70 192 307 317 112 133 191 178 176 171 183 176 214 212 253 245 269 21 332 222 157 202 128 133 212 155 158 286 326 346 11 2 1 340 312 286 270 286 302 307 308 300 291 280 270 260 254 259 259 251 231 219 227 232 218 220 213 213 219 222 219 221 228 225 221 226 227 230 230 227 217 216 205 214 214 208 210
167 263 148 130 27 338 347 343 336 322 121 184 173 216 187 156 116 146 102 80 198 211 191 161 234 257 313 328 282 59 89 107 105 147 123 35 326 346 353 337 328 310 320 336 333 320 315 313 305 302 301 295 290 281 269 264 258 253 252 237 228 237 232 223 211 209 217 216 227 222 218 224 219 225 227 229 229 231 226 219 216 211 215 211 215 214
176 178 148 174 196 198 206 199 208 204 192 223 203 195 197 171 167 125 211 182 217 241 176 201 243 244 164 352 38 22 82 103 294 281 293 263 296 20 335 313 325 347 338 320 312 313 304 294 299 294 291 294 288 281 285 277 265 259 257 250 239 243 237 227 207 214 216 218 223 230 231 235 220 221 226 228 230 229 222 219 217 216 219 212 217 212
178 182 189 195 201 213 218 212 247 125 109 184 238 176 195 200 189 189 144 183 218 221 164 237 233 257 238 234 140 187 238 199 306 315 319 292 268 239 258 335 334 307 275 276 284 296 313 308 292 288 287 282 287 290 283 278 276 266 257 262 251 243 242 234 210 215 219 221 222 230 234 233 230 230 230 227 227 219 214 216 217 215 220 213 216 215
90 188 219 210 218 228 191 185 202 166 184 205 186 193 193 187 187 187 195 225 214 264 255 231 234 249 260 231 217 249 249 284 274 259 279 285 287 299 307 305 309 303 291 289 289 283 280 282 292 293 291 299 302 305 296 280 265 268 269 269 272 251 243 240 212 220 225 225 229 233 240 236 233 232 232 228 222 218 217 216 216 219 220 210 218 220
150 201 231 170 239 206 160 155 161 183 194 197 199 190 192 202 191 195 215 224 204 198 233 246 195 224 249 245 182 235 211 231 263 272 258 285 322 306 299 291 286 290 300 309 293 287 286 295 302 305 309 307 308 304 304 306 304 294 279 266 268 264 249 233 207 228 233 233 235 238 239 243 236 230 230 223 223 222 219 218 216 215 214 216 222 221
126 233 182 152 212 174 200 157 146 172 182 156 205 211 207 199 202 205 216 219 213 214 228 247 249 239 252 232 185 223 207 202 228 241 352 292 264 262 274 281 288 293 298 297 296 302 309 302 299 299 304 310 313 312 308 307 304 305 303 298 295 274 270 188 219 228 234 233 238 243 247 250 250 238 229 226 228 229 227 223 219 215 217 220 221 221
151 253 99 107 166 237 209 145 107 138 125 215 254 218 208 213 221 223 232 251 316 292 273 272 270 267 252 156 229 247 210 243 303 294 267 251 256 256 250 257 271 285 293 302 307 308 311 314 314 313 316 317 319 312 310 305 306 309 304 291 292 288 264 192 230 229 234 242 243 250 256 254 248 236 233 230 233 228 224 223 218 220 224 226 223 221
73 220 45 85 186 259 176 161 180 113 133 207 254 241 226 206 210 211 216 214 209 224 234 248 260 255 257 143 237 235 166 219 228 242 262 291 335 279 273 281 287 283 291 297 304 309 317 319 316 319 319 318 315 316 320 325 321 319 311 308 301 294 266 217 233 236 240 245 252 253 252 250 252 241 240 233 235 228 225 221 219 224 225 226 224 224
136 124 125 113 181 237 191 153 151 132 87 278 242 235 224 202 211 214 240 226 218 213 230 231 241 252 276 173 259 279 220 250 276 277 348 20 227 216 238 276 279 287 290 300 307 313 309 308 305 304 310 310 315 322 321 323 319 314 310 311 301 306 288 262 247 251 252 252 250 254 253 253 247 245 244 238 237 229 221 218 224 227 225 226 223 217
105 122 149 164 202 245 202 134 124 144 219 230 245 208 184 222 211 205 225 221 214 177 220 229 258 286 287 263 242 259 273 262 277 43 120 141 284 33 44 346 302 294 302 300 296 296 296 301 299 295 286 286 293 299 302 304 295 297 296 290 298 305 292 276 270 251 260 262 260 260 259 254 247 247 246 243 235 224 223 219 226 226 223 223 214 216
179 171 192 171 178 222 107 115 167 222 232 244 41 154 182 201 214 225 236 237 226 216 226 246 253 255 258 261 266 270 274 33 90 118 77 52 66 70 64 340 337 332 316 315 322 322 317 312 313 319 323 325 323 317 327 325 328 325 322 330 327 321 316 291 276 271 265 273 272 264 258 253 250 251 253 244 234 226 227 226 232 226 220 215 217 215
183 181 154 201 164 92 167 173 226 226 234 324 278 243 353 157 208 194 261 260 247 235 221 227 233 240 247 253 257 275 25 117 102 81 88 52 94 55 358 340 326 326 326 312 305 304 315 321 318 312 311 311 320 320 320 307 320 327 313 314 311 312 313 303 293 286 290 282 275 266 262 255 256 253 252 245 234 228 232 230 227 226 217 217 224 224
168 157 166 213 176 223 197 221 236 353 320 277 277 232 153 164 155 168 220 238 236 230 224 231 239 244 246 257 314 7 350 139 99 139 233 49 35 124 3 292 289 298 304 305 305 299 295 291 294 297 300 305 311 318 322 322 324 314 309 313 308 304 295 298 292 289 289 281 278 275 269 257 255 258 253 245 240 236 235 232 230 228 207 217 221 219
168 178 188 199 224 194 226 246 238 222 240 243 228 161 200 176 160 179 185 263 345 331 258 215 234 247 278 329 341 327 293 303 278 189 253 172 316 331 314 272 283 279 281 289 306 299 300 303 302 293 291 304 311 310 317 329 329 326 320 315 313 316 311 302 290 286 282 279 279 276 271 258 250 254 254 246 241 241 240 235 233 228 199 212 217 220
242 228 172 200 205 171 212 226 224 216 239 223 244 198 210 176 150 123 150 236 177 219 355 125 109 111 117 104 322 8 201 245 223 118 285 313 319 335 310 295 283 278 287 295 305 312 319 319 313 302 312 317 323 326 334 332 335 333 325 322 324 323 316 311 304 295 287 284 282 277 271 263 255 251 252 249 246 241 242 234 229 225 204 218 219 226
188 192 170 230 216 208 205 225 232 215 246 265 193 253 244 127 122 117 224 244 184 217 211 123 125 140 166 214 91 67 115 196 228 251 259 296 309 291 262 294 311 314 309 310 310 296 299 304 326 331 331 328 317 314 319 324 330 325 317 315 317 314 308 307 304 295 290 286 285 280 276 264 258 254 249 251 253 246 241 238 230 221 211 219 216 225
189 189 195 209 214 226 229 246 280 268 258 211 180 204 155 148 122 180 227 201 173 199 183 150 151 152 148 131 135 85 222 176 201 228 305 319 335 318 302 254 253 276 290 297 292 293 290 291 293 293 295 298 303 312 317 326 327 319 313 308 310 302 300 301 300 298 293 293 290 286 278 270 254 257 255 247 252 252 249 232 227 219 213 219 218 220
189 193 194 211 225 227 229 241 244 279 232 209 252 182 170 116 202 214 227 113 147 180 185 160 163 207 163 145 169 179 236 248 280 318 300 289 268 270 283 289 292 282 264 267 287 310 316 318 311 306 307 304 308 310 317 326 323 314 313 314 305 299 301 301 297 296 295 293 290 288 284 276 269 254 258 258 250 255 250 237 221 219 215 216 211 216
179 184 186 197 204 224 221 239 235 239 254 109 138 51 198 188 236 129 127 57 145 160 151 215 179 197 160 240 205 220 276 299 283 263 248 265 280 283 297 308 317 319 321 324 323 314 312 316 317 313 305 305 309 300 286 287 296 301 308 306 299 305 306 300 298 295 292 290 289 286 282 279 272 268 259 257 246 243 251 232 215 220 207 207 209 214
178 194 184 212 180 208 198 216 216 231 162 230 165 204 201 176 148 133 122 145 214 157 173 182 243 234 202 224 280 257 227 260 292 286 294 238 253 288 294 299 298 303 305 298 283 296 315 310 305 304 303 308 314 316 314 320 313 307 303 293 298 306 307 307 304 300 295 291 287 285 282 276 272 266 260 256 250 242 246 233 216 212 206 200 203 207
220 198 181 198 194 195 206 208 196 147 97 309 147 133 118 120 126 147 116 143 153 231 196 128 225 254 220 233 286 304 325 329 325 330 326 318 312 291 301 300 304 305 304 302 305 305 304 299 299 302 303 302 306 308 309 314 311 308 305 302 319 313 312 308 307 304 297 293 289 284 281 279 271 265 258 253 239 241 237 232 205 213 211 194 206 205
321 154 121 102 258 187 341 185 158 51 326 29 40 87 135 143 142 99 103 108 357 81 127 128 35 40 333 276 202 321 338 325 332 328 329 323 320 304 299 308 311 311 309 310 307 309 300 298 298 300 304 306 308 309 305 302 289 289 290 300 306 303 302 303 303 300 293 290 287 282 279 279 273 261 254 248 235 234 230 217 208 212 205 198 203 203
249 147 100 177 268 147 242 156 145 176 255 351 83 55 67 86 106 102 74 76 80 73 71 42 60 53 35 42 28 349 335 328 324 312 313 314 313 311 310 304 301 304 312 315 315 317 317 314 310 306 303 301 302 304 294 298 297 280 283 291 297 299 295 294 291 288 287 283 284 283 277 269 271 268 255 241 238 234 232 222 215 212 209 205 204 206
300 190 154 210 177 168 235 181 163 213 10 50 96 105 92 87 68 57 75 85 89 75 72 54 54 52 42 49 26 25 296 291 311 312 314 311 309 311 311 309 310 311 306 301 307 313 312 312 310 307 306 300 301 303 292 288 290 292 293 291 292 294 296 293 289 289 288 287 284 278 273 267 263 259 256 241 223 225 226 222 213 214 211 202 203 200
202 101 211 191 197 266 356 297 232 5 48 49 52 55 59 101 105 73 66 64 59 53 34 41 65 74 59 34 360 351 331 319 324 310 306 306 309 313 315 314 313 310 312 324 323 322 314 310 307 303 304 300 304 307 300 293 290 292 293 293 293 291 293 290 290 286 283 282 284 278 271 259 261 253 250 247 236 229 217 207 207 216 227 224 205 201
96 207 200 83 67 210 190 208 145 139 231 205 343 57 75 65 102 99 78 57 48 43 22 8 358 32 40 14 2 344 335 315 330 334 318 311 307 311 313 314 315 317 318 322 320 312 306 302 301 303 301 298 302 304 301 298 295 292 291 288 286 285 283 286 290 291 286 283 279 275 273 265 257 252 247 244 241 240 248 240 222 219 217 226 217 217
178 196 153 176 179 225 234 203 175 141 104 163 168 140 33 29 92 90 84 90 75 60 23 21 347 353 21 13 340 3 325 319 316 320 305 298 301 305 306 310 315 319 318 321 319 317 313 306 300 298 297 299 305 303 300 297 295 295 297 287 272 270 269 274 280 281 282 282 278 270 264 259 257 249 242 242 240 236 238 248 249 228 229 228 225 224